Terminal Aerodrome Forecast
Issued by NWS Pocatello, ID

Home | Current Version | Previous Version | Text Only | Print | Product List | Glossary On
Versions: 1 2 3 4 5 6 7 8 9 10 11 12 13 14 15 16 17 18 19 20 21 22 23 24 25
000
FTUS45 KPIH 212300
TAFBYI
TAF
KBYI 212321Z 2200/2224 29011KT P6SM VCSH FEW035 BKN050
     FM220200 20008KT P6SM SCT060
     FM221500 07008KT P6SM FEW040 SCT090 BKN120=

USA.gov is the U.S. government's official web portal to all federal, state and local government web resources and services.